Regional Weather Roundup
Issued by NWS

Home | Current Version | Previous Version | Text Only | Print | Product List | Glossary Off
Versions: 1 2 3 4 5 6 7 8 9 10 11 12 13 14 15 16 17 18 19 20 21 22 23 24 25 26 27 28 29 30 31 32 33 34 35 36 37 38 39 40 41 42 43 44 45 46 47 48 49 50

000
ASUS45 KBOI 021810
RWRID

IDAHO REGIONAL WEATHER ROUNDUP
NATIONAL WEATHER SERVICE BOISE ID
1200 PM MDT SUN AUG 02 2015

NOTE: "FAIR" INDICATES FEW OR NO CLOUDS BELOW 12000 FEET
WITH NO SIGNIFICANT WEATHER AND/OR OBSTRUCTIONS TO VISIBILITY

IDZ012-014-021900-
SOUTHWEST IDAHO


CITY           SKY/WX    TMP DP  RH WIND       PRES   REMARKS
BOISE          SUNNY     92  35  13 VRB7      29.91F
CALDWELL       SUNNY     88  41  19 CALM      29.91F
MOUNTAIN HOME  SUNNY     89  40  17 E7        29.92F
$$

IDZ016-017-021900-
SOUTHCENTRAL IDAHO


CITY           SKY/WX    TMP DP  RH WIND       PRES   REMARKS
BURLEY         MOSUNNY   84  40  21 CALM      30.01F
JEROME         MOSUNNY   84  35  17 S5        30.02F
TWIN FALLS     MOSUNNY   88  34  14 NW7       30.00S
$$

IDZ019>023-021900-
SOUTHEAST IDAHO


CITY           SKY/WX    TMP DP  RH WIND       PRES   REMARKS
IDAHO FALLS    SUNNY     86  38  18 NE8       30.07F
POCATELLO      SUNNY     86  43  22 N7        30.04F
REXBURG        SUNNY     84  42  22 E3        30.08F
$$

IDZ006-010-011-018-031-032-021900-
CENTRAL IDAHO MOUNTAINS


CITY           SKY/WX    TMP DP  RH WIND       PRES   REMARKS
MCCALL         SUNNY     83  41  22 VRB3      30.07F
HAILEY         MOSUNNY   84  46  26 SE9       30.11F
STANLEY          N/A     78  36  21 VRB3      30.21F
SALMON         SUNNY     75  45  33 CALM      30.04F
CHALLIS        SUNNY     79  40  24 NE5       30.11F
$$

IDZ002-004-006-007-026-021900-
NORTHERN IDAHO


CITY           SKY/WX    TMP DP  RH WIND       PRES   REMARKS
LEWISTON       SUNNY     85  39  19 N3        29.90F
LOWELL           N/A     80  47  31 N3        29.92F
COEUR D`ALENE  SUNNY     84  39  20 SE3       29.93S
MULLAN PASS    MOSUNNY   76  29  17 MISG      30.19S
$$


USA.gov is the U.S. government's official web portal to all federal, state and local government web resources and services.